timestamp,surface_pressure_avg,surface_temp_avg,battery_voltage,lat,long
2018-04-14 00:00:00+00:00,323.8797,2.6,12.73,47.84626,-54.09684
2018-04-14 00:10:00+00:00,315.4612,2.6,12.65,47.84626,-54.09684
2018-04-14 00:20:00+00:00,307.3763,2.6,12.73,47.84626,-54.09684
2018-04-14 00:30:00+00:00,300.8113,2.58,12.73,47.84626,-54.09684
2018-04-14 00:40:00+00:00,299.458,2.53,12.73,47.84626,-54.09684
2018-04-14 00:50:00+00:00,292.7547,2.55,12.73,47.84626,-54.09684
2018-04-14 01:00:00+00:00,284.788,2.54,12.73,47.84626,-54.09684
2018-04-14 01:10:00+00:00,272.6481,2.5,12.65,47.84626,-54.09684
2018-04-14 01:20:00+00:00,266.5047,2.5,12.73,47.84626,-54.09684
2018-04-14 01:30:00+00:00,260.948,2.5,12.73,47.84626,-54.09684
2018-04-14 01:40:00+00:00,254.1281,2.5,12.73,47.84626,-54.09684
2018-04-14 01:50:00+00:00,244.4081,2.5,12.73,47.84626,-54.09684
2018-04-14 02:00:00+00:00,239.2764,2.5,12.65,47.84626,-54.09684
2018-04-14 02:10:00+00:00,237.5264,2.5,12.65,47.84626,-54.09684
2018-04-14 02:20:00+00:00,233.3297,2.5,12.73,47.84626,-54.09684
2018-04-14 02:30:00+00:00,230.4631,2.5,12.73,47.84626,-54.09684
2018-04-14 02:40:00+00:00,227.2948,2.5,12.73,47.84626,-54.09684
2018-04-14 02:50:00+00:00,222.5965,2.5,12.73,47.84626,-54.09684
2018-04-14 03:00:00+00:00,216.5497,2.5,12.65,47.84626,-54.09684
2018-04-14 03:10:00+00:00,213.1647,2.5,12.65,47.84626,-54.09684
2018-04-14 03:20:00+00:00,211.3814,2.5,12.73,47.84626,-54.09684
2018-04-14 03:30:00+00:00,205.5531,2.47,12.73,47.84626,-54.09684
2018-04-14 03:40:00+00:00,197.6131,2.4,12.73,47.84626,-54.09684
2018-04-14 03:50:00+00:00,195.6714,2.4,12.73,47.84626,-54.09684
2018-04-14 04:00:00+00:00,196.6548,2.33,12.65,47.84626,-54.09684
2018-04-14 04:10:00+00:00,191.3964,2.3,12.65,47.84626,-54.09684
2018-04-14 04:20:00+00:00,185.9748,2.3,12.73,47.84626,-54.09684
2018-04-14 04:30:00+00:00,189.6248,2.3,12.73,47.84626,-54.09684
2018-04-14 04:40:00+00:00,193.9749,2.3,12.73,47.84626,-54.09684
2018-04-14 04:50:00+00:00,188.3798,2.3,12.73,47.84626,-54.09684
2018-04-14 05:00:00+00:00,186.9765,2.3,12.65,47.84626,-54.09684
2018-04-14 05:10:00+00:00,195.6931,2.3,12.65,47.84626,-54.09684
2018-04-14 05:20:00+00:00,197.8615,2.3,12.73,47.84626,-54.09684
2018-04-14 05:30:00+00:00,196.7548,2.3,12.73,47.84626,-54.09684
2018-04-14 05:40:00+00:00,206.4264,2.3,12.73,47.84626,-54.09684
2018-04-14 05:50:00+00:00,215.6165,2.3,12.73,47.84626,-54.09684
2018-04-14 06:00:00+00:00,214.1064,2.3,12.65,47.84626,-54.09684
2018-04-14 06:10:00+00:00,216.1548,2.31,12.65,47.84626,-54.09684
2018-04-14 06:20:00+00:00,225.6848,2.3,12.73,47.84626,-54.09684
2018-04-14 06:30:00+00:00,231.5981,2.3,12.73,47.84626,-54.09684
2018-04-14 06:40:00+00:00,229.8631,2.3,12.73,47.84626,-54.09684
2018-04-14 06:50:00+00:00,235.9731,2.3,12.73,47.84626,-54.09684
2018-04-14 07:00:00+00:00,246.0098,2.3,12.65,47.84626,-54.09684
2018-04-14 07:10:00+00:00,247.7964,2.3,12.65,47.84626,-54.09684
2018-04-14 07:20:00+00:00,246.7198,2.32,12.73,47.84626,-54.09684
2018-04-14 07:30:00+00:00,257.5081,2.32,12.73,47.84626,-54.09684
2018-04-14 07:40:00+00:00,265.2047,2.33,12.73,47.84626,-54.09684
2018-04-14 07:50:00+00:00,267.4731,2.35,12.73,47.84626,-54.09684
2018-04-14 08:00:00+00:00,270.8381,2.35,12.65,47.84626,-54.09684
2018-04-14 08:10:00+00:00,282.1764,2.35,12.65,47.84626,-54.09684
2018-04-14 08:20:00+00:00,287.4797,2.39,12.73,47.84626,-54.09684
2018-04-14 08:30:00+00:00,293.0197,2.4,12.73,47.84626,-54.09684
2018-04-14 08:40:00+00:00,300.903,2.4,12.73,47.84626,-54.09684
2018-04-14 08:50:00+00:00,312.053,2.4,12.73,47.84626,-54.09684
2018-04-14 09:00:00+00:00,314.3547,2.4,12.65,47.84626,-54.09684
2018-04-14 09:10:00+00:00,320.3946,2.4,12.65,47.84626,-54.09684
2018-04-14 09:20:00+00:00,326.3697,2.4,12.73,47.84626,-54.09684
2018-04-14 09:30:00+00:00,328.668,2.4,12.73,47.84626,-54.09684
2018-04-14 09:40:00+00:00,331.6597,2.4,12.73,47.84626,-54.09684
2018-04-14 09:50:00+00:00,336.9547,2.4,12.73,47.84626,-54.09684
2018-04-14 10:00:00+00:00,337.758,2.4,12.65,47.84626,-54.09684
2018-04-14 10:10:00+00:00,332.4246,2.4,12.65,47.84626,-54.09684
2018-04-14 10:20:00+00:00,334.2314,2.4,12.73,47.84626,-54.09684
2018-04-14 10:30:00+00:00,339.868,2.4,12.73,47.84626,-54.09684
2018-04-14 10:40:00+00:00,335.4412,2.4,12.73,47.84626,-54.09684
2018-04-14 10:50:00+00:00,331.2029,2.4,12.73,47.84626,-54.09684
2018-04-14 11:00:00+00:00,334.693,2.4,12.65,47.84626,-54.09684
2018-04-14 11:10:00+00:00,335.2613,2.4,12.65,47.84626,-54.09684
2018-04-14 11:20:00+00:00,328.8214,2.4,12.73,47.84626,-54.09684
2018-04-14 11:30:00+00:00,321.3613,2.4,12.73,47.84626,-54.09684
2018-04-14 11:40:00+00:00,321.8279,2.4,12.73,47.84626,-54.09684
2018-04-14 11:50:00+00:00,319.2563,2.4,12.73,47.84626,-54.09684
2018-04-14 12:00:00+00:00,313.0813,2.4,12.65,47.84626,-54.09684
2018-04-14 12:10:00+00:00,305.418,2.4,12.65,47.84626,-54.09684
2018-04-14 12:20:00+00:00,304.8196,2.4,12.73,47.84626,-54.09684
2018-04-14 12:30:00+00:00,305.423,2.41,12.73,47.84626,-54.09684
2018-04-14 12:40:00+00:00,303.823,2.44,12.73,47.84626,-54.09684
2018-04-14 12:50:00+00:00,298.2198,2.47,12.73,47.84626,-54.09684
2018-04-14 13:00:00+00:00,290.5781,2.49,12.65,47.84626,-54.09684
2018-04-14 13:10:00+00:00,280.278,2.5,12.65,47.84626,-54.09684
2018-04-14 13:20:00+00:00,270.4397,2.5,12.73,47.84626,-54.09684
2018-04-14 13:30:00+00:00,263.1764,2.5,12.73,47.84626,-54.09684
2018-04-14 13:40:00+00:00,257.4581,2.5,12.73,47.84626,-54.09684
2018-04-14 13:50:00+00:00,249.8148,2.5,12.73,47.84626,-54.09684
2018-04-14 14:00:00+00:00,246.2148,2.5,13.05,47.84626,-54.09684
2018-04-14 14:10:00+00:00,239.8765,2.5,13.21,47.84626,-54.09684
2018-04-14 14:20:00+00:00,229.0631,2.52,13.29,47.84626,-54.09684
2018-04-14 14:30:00+00:00,227.7448,2.59,13.21,47.84626,-54.09684
2018-04-14 14:40:00+00:00,229.1081,2.6,13.13,47.84626,-54.09684
2018-04-14 14:50:00+00:00,221.3197,2.6,13.13,47.84626,-54.09684
2018-04-14 15:00:00+00:00,213.8748,2.6,13.05,47.84626,-54.09684
2018-04-14 15:10:00+00:00,213.2731,2.62,13.13,47.84626,-54.09684
2018-04-14 15:20:00+00:00,212.9464,2.62,13.21,47.84626,-54.09684
2018-04-14 15:30:00+00:00,205.5981,2.64,13.05,47.84626,-54.09684
2018-04-14 15:40:00+00:00,200.4331,2.64,13.05,47.84626,-54.09684
2018-04-14 15:50:00+00:00,200.3914,2.6,13.05,47.84626,-54.09684
2018-04-14 16:00:00+00:00,198.2314,2.6,12.97,47.84626,-54.09684
2018-04-14 16:10:00+00:00,196.4014,2.6,12.97,47.84626,-54.09684
2018-04-14 16:20:00+00:00,194.2898,2.6,13.13,47.84626,-54.09684
2018-04-14 16:30:00+00:00,191.7964,2.6,13.13,47.84626,-54.09684
2018-04-14 16:40:00+00:00,193.2981,2.6,13.13,47.84626,-54.09684
2018-04-14 16:50:00+00:00,195.0115,2.6,13.13,47.84626,-54.09684
2018-04-14 17:00:00+00:00,195.7815,2.6,13.05,47.84626,-54.09684
2018-04-14 17:10:00+00:00,196.2915,2.64,13.05,47.84626,-54.09684
2018-04-14 17:20:00+00:00,197.9464,2.7,13.13,47.84626,-54.09684
2018-04-14 17:30:00+00:00,201.7731,2.7,13.05,47.84626,-54.09684
2018-04-14 17:40:00+00:00,207.2198,2.7,12.97,47.84626,-54.09684
2018-04-14 17:50:00+00:00,211.0081,2.7,12.97,47.84626,-54.09684
2018-04-14 18:00:00+00:00,217.2064,2.7,12.89,47.84626,-54.09684
2018-04-14 18:10:00+00:00,223.9464,2.7,12.89,47.84626,-54.09684
2018-04-14 18:20:00+00:00,227.8231,2.7,12.89,47.84626,-54.09684
2018-04-14 18:30:00+00:00,233.9915,2.7,12.89,47.84626,-54.09684
2018-04-14 18:40:00+00:00,239.2564,2.7,12.89,47.84626,-54.09684
2018-04-14 18:50:00+00:00,243.8014,2.7,12.89,47.84626,-54.09684
2018-04-14 19:00:00+00:00,253.7347,2.7,12.81,47.84626,-54.09684
2018-04-14 19:10:00+00:00,257.8448,2.7,12.81,47.84626,-54.09684
2018-04-14 19:20:00+00:00,257.688,2.7,12.89,47.84626,-54.09684
2018-04-14 19:30:00+00:00,265.0681,2.7,12.81,47.84626,-54.09684
2018-04-14 19:40:00+00:00,283.6597,2.64,12.89,47.84626,-54.09684
2018-04-14 19:50:00+00:00,286.0214,2.62,12.89,47.84626,-54.09684
2018-04-14 20:00:00+00:00,283.6063,2.61,12.81,47.84626,-54.09684
2018-04-14 20:10:00+00:00,290.353,2.6,12.81,47.84626,-54.09684
2018-04-14 20:20:00+00:00,302.6564,2.6,12.81,47.84626,-54.09684
2018-04-14 20:30:00+00:00,305.1663,2.6,12.81,47.84626,-54.09684
2018-04-14 20:40:00+00:00,312.1347,2.6,12.89,47.84626,-54.09684
2018-04-14 20:50:00+00:00,323.613,2.6,12.89,47.84626,-54.09684
2018-04-14 21:00:00+00:00,332.9496,2.6,12.81,47.84626,-54.09684
2018-04-14 21:10:00+00:00,334.8229,2.6,12.81,47.84626,-54.09684
2018-04-14 21:20:00+00:00,339.5079,2.6,12.89,47.84626,-54.09684
2018-04-14 21:30:00+00:00,347.0629,2.6,12.89,47.84626,-54.09684
2018-04-14 21:40:00+00:00,348.7063,2.61,12.89,47.84626,-54.09684
2018-04-14 21:50:00+00:00,346.6479,2.64,12.89,47.84626,-54.09684
2018-04-14 22:00:00+00:00,348.2513,2.65,12.81,47.84626,-54.09684
2018-04-14 22:10:00+00:00,351.603,2.63,12.73,47.84626,-54.09684
2018-04-14 22:20:00+00:00,359.2246,2.6,12.81,47.84626,-54.09684
2018-04-14 22:30:00+00:00,359.6529,2.6,12.81,47.84626,-54.09684
2018-04-14 22:40:00+00:00,359.1262,2.6,12.81,47.84626,-54.09684
2018-04-14 22:50:00+00:00,357.1113,2.6,12.81,47.84626,-54.09684
2018-04-14 23:00:00+00:00,358.723,2.6,12.73,47.84626,-54.09684
2018-04-14 23:10:00+00:00,359.4763,2.6,12.73,47.84626,-54.09684
2018-04-14 23:20:00+00:00,350.3513,2.6,12.81,47.84626,-54.09684
2018-04-14 23:30:00+00:00,344.7213,2.6,12.81,47.84626,-54.09684
2018-04-14 23:40:00+00:00,342.403,2.6,12.81,47.84626,-54.09684
2018-04-14 23:50:00+00:00,338.838,2.6,12.81,47.84626,-54.09684
